[[{"header":{"parameterUnit":"m.s-1","parameterCategory":1,"la1":30.2991,"la2":30.254,"lo1":-89.0895,"lo2":-89.0444,"dy":0.0017,"dx":0.0017,"nx":28,"ny":28,"refTime":"2024-08-04T21:00:00:Z","depth":0,"parameterNumber":2,"parameterNumberName":"U-component_of_WINDS"},"data":[0,0,0,0,0,0,0,0,0,0,0,0,0,0,0,0,0,0,0,0,0,0,0,0,0,0,0,0,0,0,0,0,0,0,0,0,0,0,0,0,0,0,0,0,0,0,0,0,0,0,0,0,0,0,0,0,0,0,1.563,1.5631,0,1.5699,1.57,1.5701,1.5721,1.5721,1.5721,1.572,1.5792,1.5795,1.5797,0,0,0,0,0,0,0,0,0,0,0,0,0,1.5518,1.552,1.563,1.5631,1.5632,1.5699,1.57,1.5701,1.5721,1.5721,1.5721,1.572,1.5792,1.5794,1.5797,0,0,0,0,0,0,0,0,0,0,0,0,0,1.5575,1.5521,1.563,1.565,1.5652,1.5699,1.57,1.5701,1.5721,1.5721,1.572,1.572,1.5791,1.5794,1.5797,1.5829,0,0,1.5808,1.5809,0,0,0,0,0,0,0,0,1.5572,1.5579,1.5646,1.5649,1.5652,1.5701,1.5687,1.5744,1.5722,1.5695,1.572,1.572,1.5763,1.5768,1.5782,1.5832,1.5835,1.5808,1.581,1.5812,1.5812,0,0,0,0,0,0,0,1.5568,1.5576,1.5657,1.5647,1.565,1.5656,1.5664,1.5698,1.5731,1.5698,1.5699,1.5707,1.5764,1.5779,1.5784,1.5837,1.5808,1.5811,1.5813,1.5814,1.5918,1.5918,0,0,0,0,0,0,1.556,1.5573,1.5655,1.5659,1.5609,1.5659,1.5667,1.5686,1.5731,1.5737,1.5707,1.5708,1.5774,1.578,1.5787,1.5828,1.5812,1.5815,1.5817,1.5917,1.5918,1.5919,0,0,0,0,0,0,1.5558,1.5567,1.5652,1.5617,1.5628,1.5661,1.5682,1.5687,1.5702,1.5738,1.5744,1.5717,1.5773,1.5782,1.5819,1.583,1.5816,1.5819,1.5916,1.5917,1.5918,1.5909,0,0,0,0,0,0,1.5554,1.5566,1.5578,1.5617,1.563,1.5682,1.5683,1.5689,1.5708,1.5709,1.5749,1.5755,1.5774,1.5813,1.5822,1.5835,1.5822,1.5915,1.5917,1.5918,1.5908,1.5909,1.5911,0,0,0,0,0,1.555,1.5572,1.5578,1.5588,1.5645,1.5683,1.569,1.5711,1.5709,1.5721,1.5745,1.5753,1.5828,1.5817,1.5827,1.5841,1.5915,1.5916,1.5918,1.5908,1.5909,1.591,0,0,0,0,0,0,1.5534,1.5578,1.5585,1.562,1.5648,1.5686,1.5702,1.5712,1.5741,1.5741,1.5766,1.5775,1.581,1.5829,1.5816,1.5875,1.5872,1.5875,1.5861,1.5862,1.5863,1.5858,1.5825,0,0,0,0,0,1.5535,1.5561,1.5598,1.5626,1.5639,1.5668,1.5686,1.57,1.5729,1.5741,1.5767,1.5796,1.5826,1.5845,1.5875,1.5911,1.5921,1.5926,1.5927,1.5928,1.5931,1.5953,1.5956,1.5924,1.5924,1.5924,0,0,1.5536,1.5563,1.5578,1.5623,1.5646,1.5674,1.5678,1.5707,1.5728,1.5746,1.5782,1.5802,1.5836,1.5873,1.5891,1.589,1.5942,1.593,1.593,1.5933,1.5955,1.5958,1.596,1.5925,1.5925,1.5925,0,0,1.5553,1.5576,1.5602,1.5625,1.5659,1.5679,1.5685,1.5723,1.5737,1.5774,1.5788,1.5814,1.5865,1.5889,1.5908,1.5935,1.5945,1.5944,1.595,1.5971,1.5974,1.5976,1.5987,1.599,1.5947,1.5947,1.5947,0,1.555,1.5592,1.5614,1.5642,1.5662,1.568,1.5707,1.5728,1.5771,1.5785,1.5784,1.5849,1.5873,1.5916,1.5923,1.5938,1.5947,1.594,1.5972,1.5974,1.5977,1.5987,1.5991,1.5947,1.5947,1.5947,1.5947,0,1.5587,1.5616,1.5633,1.5674,1.5696,1.5724,1.5751,1.5771,1.5783,1.5803,1.5841,1.5871,1.5907,1.5919,1.5931,1.5964,1.5963,1.5966,1.5964,1.5979,1.5989,1.5993,1.5947,1.5947,1.5947,1.5947,0,0,1.5595,1.5648,1.5654,1.5674,1.5714,1.5737,1.5766,1.5802,1.5819,1.5848,1.5874,1.5917,1.5921,1.5942,1.5958,1.5976,1.5998,1.5978,1.5979,1.5981,1.6037,1.6034,1.6038,1.6004,1.6005,1.6006,1.6034,0,1.5617,1.5669,1.569,1.5733,1.5761,1.5778,1.5804,1.5832,1.5852,1.5879,1.5901,1.5932,1.5934,1.5947,1.5967,1.5991,1.6009,1.5989,1.6029,1.603,1.602,1.6044,1.6041,1.6066,1.6038,1.6039,1.604,0,1.5649,1.5679,1.5724,1.5762,1.5775,1.5797,1.5832,1.5858,1.589,1.5904,1.5928,1.5943,1.5976,1.5971,1.6017,1.6003,1.6021,1.6035,1.6037,1.6041,1.6036,1.6049,1.6075,1.6078,1.6046,1.6046,1.6045,0,1.5651,1.5702,1.5736,1.5752,1.5797,1.5813,1.5833,1.5865,1.5885,1.5916,1.593,1.5964,1.5983,1.601,1.6034,1.6029,1.6078,1.6075,1.6091,1.609,1.61,1.6099,1.6129,1.6111,1.6111,1.6111,1.6111,0,1.5673,1.57,1.5738,1.5758,1.579,1.5815,1.5845,1.5867,1.5895,1.5921,1.5939,1.5963,1.5994,1.6022,1.6042,1.6077,1.6085,1.6098,1.6103,1.6096,1.6095,1.6108,1.6107,1.6112,1.6112,1.6112,1.6112,0,1.568,1.5706,1.5744,1.5784,1.5795,1.5816,1.5851,1.5873,1.5894,1.5927,1.5936,1.5969,1.6004,1.6031,1.6076,1.6089,1.6127,1.6132,1.6115,1.6118,1.6132,1.613,1.6171,1.6178,1.6156,1.6156,1.6156,0,1.5693,1.5714,1.5756,1.5775,1.5795,1.5824,1.5845,1.5871,1.5893,1.5933,1.595,1.5985,1.6015,1.607,1.6099,1.6134,1.614,1.6152,1.6145,1.6139,1.6141,1.6139,1.6142,1.6153,1.6153,1.6153,1.6153,0,1.5712,1.5725,1.5754,1.5788,1.5813,1.5841,1.587,1.5885,1.5916,1.594,1.5975,1.5998,1.6045,1.608,1.6118,1.614,1.6152,1.6155,1.6161,1.6154,1.6144,1.615,1.6118,1.6154,1.6154,1.6154,1.6154,1.6154,1.5723,1.5743,1.5776,1.5809,1.5833,1.586,1.5883,1.5907,1.5937,1.5976,1.599,1.6027,1.6061,1.6113,1.6135,1.6165,1.6166,1.6173,1.6175,1.6177,1.6176,1.6139,1.6172,1.6172,1.6172,1.6172,1.6172,0,1.5744,1.5767,1.5796,1.5836,1.5862,1.5871,1.5904,1.5926,1.5957,1.5988,1.6017,1.6059,1.6094,1.6126,1.6163,1.618,1.6187,1.6189,1.6188,1.6193,1.6173,1.6165,1.6183,1.6183,1.6183,1.6183,1.6183,1.6183,1.5758,1.5793,1.5809,1.5857,1.588,1.5915,1.5933,1.5959,1.5983,1.6029,1.6058,1.6078,1.611,1.6149,1.6182,1.6191,1.6204,1.6205,1.6215,1.6196,1.6194,1.6193,1.6185,1.6207,1.6207,1.6232,1.6232,1.6232]},{"header":{"parameterUnit":"m.s-1","parameterCategory":1,"la1":30.2991,"la2":30.254,"lo1":-89.0895,"lo2":-89.0444,"dy":0.0017,"dx":0.0017,"nx":28,"ny":28,"refTime":"2024-08-04T21:00:00:Z","depth":0,"parameterNumber":3,"parameterNumberName":"V-component_of_WINDS"},"data":[0,0,0,0,0,0,0,0,0,0,0,0,0,0,0,0,0,0,0,0,0,0,0,0,0,0,0,0,0,0,0,0,0,0,0,0,0,0,0,0,0,0,0,0,0,0,0,0,0,0,0,0,0,0,0,0,0,0,-1.559,-1.559,0,-1.5589,-1.5589,-1.5589,-1.5596,-1.5596,-1.5596,-1.5596,-1.5596,-1.5595,-1.5595,0,0,0,0,0,0,0,0,0,0,0,0,0,-1.5597,-1.5597,-1.559,-1.559,-1.559,-1.5589,-1.5589,-1.5589,-1.5596,-1.5596,-1.5596,-1.5596,-1.5596,-1.5595,-1.5595,0,0,0,0,0,0,0,0,0,0,0,0,0,-1.5595,-1.5597,-1.559,-1.5593,-1.5593,-1.5589,-1.5589,-1.5589,-1.5596,-1.5596,-1.5596,-1.5597,-1.5596,-1.5595,-1.5595,-1.5588,0,0,-1.5594,-1.5594,0,0,0,0,0,0,0,0,-1.5595,-1.5595,-1.5593,-1.5593,-1.5593,-1.5593,-1.5592,-1.5589,-1.5596,-1.5595,-1.5596,-1.5597,-1.5594,-1.5594,-1.5594,-1.5588,-1.5588,-1.5594,-1.5594,-1.5594,-1.5594,0,0,0,0,0,0,0,-1.5595,-1.5595,-1.559,-1.5592,-1.5593,-1.5595,-1.5595,-1.5591,-1.5593,-1.5595,-1.5595,-1.5595,-1.5595,-1.5594,-1.5594,-1.5588,-1.5594,-1.5594,-1.5594,-1.5594,-1.5578,-1.5578,0,0,0,0,0,0,-1.5595,-1.5595,-1.559,-1.559,-1.5595,-1.5594,-1.5594,-1.5593,-1.5593,-1.5593,-1.5595,-1.5596,-1.5594,-1.5594,-1.5594,-1.5586,-1.5594,-1.5594,-1.5593,-1.5578,-1.5578,-1.5578,0,0,0,0,0,0,-1.5595,-1.5594,-1.559,-1.5592,-1.5592,-1.5594,-1.5592,-1.5593,-1.5592,-1.5593,-1.5594,-1.5594,-1.5594,-1.5594,-1.559,-1.5586,-1.5593,-1.5593,-1.5578,-1.5578,-1.5578,-1.5571,0,0,0,0,0,0,-1.5595,-1.5594,-1.5591,-1.5592,-1.5592,-1.5585,-1.5592,-1.5592,-1.5591,-1.5592,-1.5592,-1.5592,-1.5595,-1.559,-1.5589,-1.5586,-1.5593,-1.5579,-1.5578,-1.5578,-1.5571,-1.557,-1.5569,0,0,0,0,0,-1.5595,-1.5589,-1.5591,-1.559,-1.5588,-1.5585,-1.5585,-1.5587,-1.5591,-1.5588,-1.5589,-1.5592,-1.5587,-1.559,-1.5589,-1.5585,-1.5579,-1.5578,-1.5578,-1.5572,-1.557,-1.5569,0,0,0,0,0,0,-1.5587,-1.5589,-1.5591,-1.5585,-1.5585,-1.5586,-1.5583,-1.5586,-1.5584,-1.5585,-1.5588,-1.5588,-1.5584,-1.5584,-1.5587,-1.5579,-1.5584,-1.5583,-1.5579,-1.5578,-1.5577,-1.5577,-1.5593,0,0,0,0,0,-1.5584,-1.5582,-1.5584,-1.5578,-1.5578,-1.558,-1.5579,-1.5581,-1.5581,-1.5581,-1.5582,-1.5582,-1.558,-1.5579,-1.5577,-1.5571,-1.5572,-1.5569,-1.5568,-1.5567,-1.5566,-1.5564,-1.5563,-1.5576,-1.5576,-1.5576,0,0,-1.5579,-1.558,-1.5578,-1.5576,-1.5576,-1.5574,-1.558,-1.5577,-1.5576,-1.5581,-1.5577,-1.5578,-1.5578,-1.5573,-1.5571,-1.5573,-1.5563,-1.5566,-1.5566,-1.5565,-1.5564,-1.5563,-1.5562,-1.5575,-1.5576,-1.5576,0,0,-1.5568,-1.5568,-1.5564,-1.5564,-1.5565,-1.5567,-1.5566,-1.5567,-1.5568,-1.5564,-1.5568,-1.5567,-1.5564,-1.5564,-1.5564,-1.5555,-1.5558,-1.5554,-1.5549,-1.5547,-1.5546,-1.5545,-1.5543,-1.5542,-1.5554,-1.5554,-1.5554,0,-1.5561,-1.5557,-1.5561,-1.5558,-1.5558,-1.5563,-1.5559,-1.5559,-1.5559,-1.5559,-1.5562,-1.5559,-1.5559,-1.5555,-1.5553,-1.5553,-1.5552,-1.5554,-1.5546,-1.5545,-1.5544,-1.5542,-1.5541,-1.5553,-1.5553,-1.5553,-1.5553,0,-1.5549,-1.5547,-1.5544,-1.5544,-1.5543,-1.554,-1.5544,-1.5543,-1.5545,-1.5547,-1.5544,-1.5545,-1.5545,-1.5544,-1.5546,-1.5541,-1.5542,-1.5545,-1.555,-1.5543,-1.5541,-1.554,-1.5553,-1.5553,-1.5553,-1.5553,0,0,-1.5532,-1.5536,-1.5534,-1.5535,-1.5537,-1.5535,-1.5533,-1.5533,-1.5532,-1.5532,-1.5531,-1.5529,-1.5532,-1.5532,-1.5535,-1.5533,-1.5527,-1.5536,-1.5537,-1.5535,-1.5522,-1.552,-1.5519,-1.5529,-1.5529,-1.5529,-1.5523,0,-1.5522,-1.5517,-1.5521,-1.5517,-1.5515,-1.5521,-1.5519,-1.552,-1.5522,-1.5522,-1.5524,-1.5523,-1.5527,-1.5527,-1.5526,-1.5528,-1.5525,-1.5529,-1.5528,-1.5528,-1.5528,-1.5518,-1.5515,-1.5509,-1.5522,-1.5522,-1.5522,0,-1.5509,-1.551,-1.5505,-1.5508,-1.5508,-1.5506,-1.5507,-1.5506,-1.5508,-1.551,-1.551,-1.5514,-1.5512,-1.5517,-1.5515,-1.5518,-1.5518,-1.552,-1.552,-1.552,-1.5525,-1.5518,-1.5507,-1.5506,-1.552,-1.552,-1.552,0,-1.5498,-1.5497,-1.5495,-1.5495,-1.5499,-1.5498,-1.5499,-1.5501,-1.5501,-1.5502,-1.5503,-1.5503,-1.5504,-1.5505,-1.5509,-1.5511,-1.5507,-1.5512,-1.5509,-1.5509,-1.5507,-1.5507,-1.5496,-1.5507,-1.5507,-1.5507,-1.5507,0,-1.5486,-1.5483,-1.549,-1.5488,-1.5485,-1.549,-1.5488,-1.549,-1.5492,-1.5491,-1.5496,-1.5496,-1.5501,-1.5501,-1.5504,-1.5503,-1.5503,-1.5505,-1.5506,-1.5504,-1.5504,-1.5505,-1.5505,-1.5507,-1.5507,-1.5507,-1.5507,0,-1.5473,-1.5477,-1.5475,-1.5479,-1.548,-1.5478,-1.5482,-1.5481,-1.5484,-1.5483,-1.5483,-1.5488,-1.5489,-1.5493,-1.5494,-1.5496,-1.5494,-1.5496,-1.5494,-1.5494,-1.5492,-1.5492,-1.5481,-1.548,-1.5491,-1.5491,-1.549,0,-1.5466,-1.5464,-1.5468,-1.5468,-1.547,-1.5469,-1.547,-1.5475,-1.5476,-1.5479,-1.5478,-1.5479,-1.548,-1.5481,-1.5484,-1.5486,-1.5488,-1.5484,-1.5488,-1.5487,-1.5488,-1.5489,-1.5489,-1.5483,-1.5483,-1.5482,-1.5482,0,-1.5452,-1.5455,-1.5455,-1.5457,-1.5458,-1.5459,-1.5461,-1.5461,-1.5467,-1.5467,-1.5468,-1.5469,-1.5471,-1.5472,-1.5475,-1.5477,-1.5481,-1.5481,-1.5481,-1.5479,-1.5479,-1.548,-1.5492,-1.5481,-1.5481,-1.5481,-1.5482,-1.5482,-1.5442,-1.5441,-1.5444,-1.5445,-1.5447,-1.5449,-1.5449,-1.5452,-1.5453,-1.5455,-1.5459,-1.5459,-1.5463,-1.5466,-1.5468,-1.5469,-1.5472,-1.5471,-1.5471,-1.547,-1.547,-1.5478,-1.547,-1.547,-1.547,-1.547,-1.547,0,-1.5429,-1.5432,-1.5433,-1.5436,-1.5437,-1.5441,-1.5444,-1.5444,-1.5445,-1.5448,-1.5449,-1.5451,-1.5453,-1.5457,-1.5459,-1.5459,-1.5461,-1.546,-1.546,-1.5461,-1.5468,-1.5468,-1.5458,-1.5458,-1.5458,-1.5458,-1.5458,-1.5458,-1.5423,-1.5422,-1.5425,-1.5425,-1.5428,-1.5429,-1.543,-1.5433,-1.5435,-1.5437,-1.5438,-1.5441,-1.5445,-1.5448,-1.545,-1.5452,-1.5452,-1.545,-1.5452,-1.5459,-1.546,-1.5461,-1.5461,-1.545,-1.545,-1.5445,-1.5445,-1.5445]}]]